Regional Weather Roundup
Issued by NWS Huntsville, AL

Home | Current Version | Previous Version | Text Only | Print | Product List | Glossary On
Versions: 1 2 3 4 5 6 7 8 9 10 11 12 13 14 15 16 17 18 19 20 21 22 23 24 25 26 27
000
ASUS44 KHUN 251710
RWRHUN

WEATHER ROUNDUP FOR THE TENNESSEE VALLEY
NATIONAL WEATHER SERVICE HUNTSVILLE AL
1200 PM CDT SUN SEP 25 2016

ALZ001>004-251800-
NORTHWEST ALABAMA

CITY           SKY/WX    TMP DP  RH WIND       PRES   REMARKS
SHOALS AIRPORT SUNNY     93  62  35 W6        30.07F HX  93
$$

ALZ005>007-016-251800-
NORTH CENTRAL ALABAMA

CITY           SKY/WX    TMP DP  RH WIND       PRES   REMARKS
DECATUR AP     SUNNY     93  66  40 VRB3      30.07F HX  96
HUNTSVILLE AP  MOSUNNY   93  62  35 VRB6      30.06F HX  93
MERIDIANVILLE  SUNNY     90  54  29 SW6       30.08S
REDSTONE ARSN  SUNNY     92  63  38 VRB5      30.05F HX  92
VINEMONT AP    FAIR      91  60  34 NE3       30.10F HX  91
$$

ALZ008>010-251800-
NORTHEAST ALABAMA

CITY           SKY/WX    TMP DP  RH WIND       PRES   REMARKS
ALBERTVILLE    SUNNY     91  68  46 SW8       30.08F HX  95
FORT PAYNE     SUNNY     90  54  29 S6        30.08F
SCOTTSBORO AP  SUNNY     91  63  38 W7        30.07F HX  92
SCOTTSBORO HCN   N/A     91 N/A N/A MISG        N/A
VALLEY HEAD      N/A     90 N/A N/A MISG        N/A
$$

TNZ076-096-097-251800-
SOUTHEASTERN MIDDLE TENNESSEE

CITY           SKY/WX    TMP DP  RH WIND       PRES   REMARKS
TULLAHOMA      SUNNY     90  61  37 S7        30.10F
WINCHESTER     SUNNY     91  63  38 W6        30.09S HX  92
$$

...SURROUNDING SITES...

CITY           SKY/WX    TMP DP  RH WIND       PRES   REMARKS
ATLANTA        MOSUNNY   89  61  38 SE6       30.11S
ANNISTON       SUNNY     93  56  28 E6        30.07F HX  91
BIRMINGHAM     MOSUNNY   93  62  35 E5        30.08F HX  93
CHATTANOOGA    MOSUNNY   91  65  41 VRB3      30.09F HX  93
CORINTH        FAIR      91  59  33 E5        30.05F HX  90
DALTON         SUNNY     90  63  40 CALM      30.09F HX  90
GADSDEN        SUNNY     91  66  43 CALM      30.07F HX  93
GOLDEN TRNGL   SUNNY     91  66  43 N5        30.04F HX  94
HALEYVILLE     FAIR      90  63  40 CALM      30.10F HX  91
JACKSON TN     SUNNY    N/A N/A N/A E3        30.07F
MEMPHIS        MOSUNNY   93  64  38 S5        30.05F HX  94
NASHVILLE      MOSUNNY   89  65  44 N5        30.09S HX  91
OXFORD MS      FAIR      93  57  29 S5        30.07F HX  92
ROME           SUNNY     91  62  37 MISG      30.07F HX  91
SAVANNAH       SUNNY     91  61  35 VRB5      30.05F HX  91
TUPELO         SUNNY     93  58  30 CALM      30.05F HX  92
TUSCALOOSA     SUNNY     93  62  35 W5        30.03F HX  93
$$

...GULF COAST WEATHER...

CITY           SKY/WX    TMP DP  RH WIND       PRES   REMARKS
GULFPORT       SUNNY     91  71  51 CALM      30.03F HX  97
PASCAGOULA     SUNNY     91  75  59 CALM      30.04S HX 101
MOBILE         MOSUNNY   89  72  56 SW5       30.05S HX  96
GULF SHORES    SUNNY     89  74  60 NW3       30.03S HX  97
PENSACOLA      MOSUNNY   88  74  63 S8        30.02S HX  96
DESTIN         SUNNY     93  70  46 NE7       30.02F HX  99
PANAMA CITY    MOSUNNY   89  73  59 E5        30.03S HX  97
APPALACHICOLA  SUNNY     88  77  69 S10       30.03S HX 100
$$





USA.gov is the U.S. government's official web portal to all federal, state and local government web resources and services.